Tracking 35274 objects as of 12-Sep-2026
HD Live streaming from Space Station
objects crossing your sky now

COSMOS 884 DEB


COSMOS 884 DEB is no longer on orbit


NORAD ID: 9646
Int'l Code: 1976-123F
Launch date: December 17, 1976
Source: Commonwealth of Independent States (former USSR) (CIS)
Launch site: TYURATAM MISSILE AND SPACE COMPLEX (TTMTR)
Decay date: 1977-01-03

Note: This is SATELLITE DEBRIS
Your satellite tracking list
Your tracking list is empty




NASA's NSSDC Master Catalog

Two Line Element Set (TLE):
1 09646U 76123  F 76364.62589287  .00147448 +00000-0 +00000-0 0  9995
2 09646 065.0483 219.6392 0097838 065.3467 303.3505 16.18416977001977
Source of the keplerian elements: AFSPC